Wind_Speed
23 23 24 24 24 24 26 27 29 28 28 27 28 29 29 29 30 30 31 32 33 33 35 37 38 39 40 41 42 42 42 43 43 43 43 44 44 45 45 45 47 47 47 47
23 22 23 24 23 24 25 26 26 27 27 27 28 29 30 30 31 32 32 33 34 35 36 37 38 39 40 40 40 41 42 42 43 43 43 43 44 44 45 46 46 46 46 46
23 22 23 22 21 22 23 24 26 26 26 27 27 28 30 30 31 32 32 32 33 34 35 36 37 38 39 40 40 40 40 40 40 41 43 44 44 43 44 44 45 45 45 46
23 23 23 21 21 22 23 24 25 27 27 27 27 27 29 30 30 31 32 32 32 32 33 34 35 36 37 38 39 39 40 40 40 41 41 42 42 42 42 42 42 42 43 44
23 24 23 22 22 22 23 23 24 25 26 26 27 27 27 29 30 31 32 33 32 31 33 33 33 34 34 35 36 37 38 39 39 40 40 40 41 41 41 41 41 41 41 42
23 24 24 22 22 22 24 24 23 25 25 26 26 27 27 29 30 30 31 32 32 32 33 33 33 34 34 34 35 36 36 37 37 38 39 39 39 40 40 39 39 39 40 41
23 24 24 23 23 24 25 25 24 25 26 26 26 27 27 28 28 29 30 30 31 31 31 32 32 33 34 34 34 35 35 35 35 35 36 37 37 37 37 37 38 38 38 39
23 23 23 23 24 25 26 25 25 25 26 26 27 26 27 27 27 28 28 29 30 30 30 30 31 32 32 32 33 34 34 34 34 34 34 34 35 36 36 36 36 36 37 38
22 22 23 24 26 26 26 26 26 26 27 27 27 26 27 27 27 28 29 29 30 30 29 30 30 30 30 30 31 31 32 32 32 32 33 33 34 35 34 35 35 36 36 36
22 22 23 24 25 26 26 26 26 26 27 27 27 27 27 28 28 29 29 29 30 30 30 30 29 29 29 29 29 29 30 30 30 31 32 32 33 33 34 35 35 35 35 35
22 23 23 24 25 26 26 27 27 27 27 27 27 27 27 28 28 28 28 28 29 29 30 29 29 29 29 28 28 29 28 28 29 30 31 31 31 31 32 33 34 35 35 36
23 23 24 24 25 25 26 26 27 26 26 26 26 26 27 27 27 27 27 27 27 28 28 28 29 29 29 28 28 27 27 27 29 30 31 31 31 31 31 32 33 34 34 35
24 24 24 24 24 24 24 25 24 24 24 25 26 26 26 26 26 26 26 26 26 26 26 27 27 28 28 28 27 27 28 28 29 29 30 30 31 31 31 31 32 33 33 33
24 24 23 23 23 23 23 23 23 23 24 24 25 26 26 26 26 26 25 25 25 25 25 25 25 26 26 27 27 27 27 28 28 29 29 30 30 30 30 30 31 32 32 32
24 24 24 23 23 23 23 23 23 23 23 24 25 25 26 26 26 26 25 25 24 25 25 25 25 25 25 25 26 27 27 27 27 28 28 29 29 29 30 30 30 30 30 31
24 24 24 23 23 24 24 24 24 24 24 24 25 25 25 26 26 26 26 25 24 24 24 25 25 25 25 26 26 26 27 27 28 28 28 28 29 30 30 30 30 30 30 31
24 24 24 23 23 24 24 24 24 25 25 26 26 26 26 26 26 25 25 25 24 25 25 24 24 25 25 25 26 26 27 28 28 28 29 29 29 30 30 30 30 30 30 31
24 24 24 24 24 24 24 24 25 25 26 26 27 27 27 26 26 25 24 24 25 25 25 24 24 24 25 25 25 26 26 27 27 28 28 28 29 30 30 29 29 29 29 29
23 24 24 24 24 24 25 25 25 25 25 26 26 27 27 26 26 25 24 24 24 24 24 24 24 24 25 25 26 26 26 27 27 27 28 28 29 29 29 29 28 29 29 28
23 23 23 23 23 24 24 25 25 25 25 26 26 27 26 26 25 24 24 24 24 23 23 23 23 24 24 25 26 26 26 26 26 27 28 28 28 28 28 27 27 27 28 28
22 22 22 23 24 24 25 25 25 25 25 26 26 26 26 25 25 25 25 24 23 23 23 23 24 24 24 25 25 25 25 26 26 26 26 26 26 26 25 25 26 26 27 27
23 23 23 24 24 24 25 25 25 25 25 25 25 26 25 24 24 25 24 23 23 23 23 24 24 25 25 25 25 25 25 25 25 25 25 25 24 24 24 24 25 25 25 26
23 23 24 24 24 24 24 25 25 25 25 25 25 25 25 25 24 23 23 23 23 23 24 24 24 25 26 26 26 26 25 25 25 25 24 24 24 24 23 23 23 24 24 24
23 24 23 23 23 24 24 24 25 25 25 25 26 26 25 25 24 23 23 23 23 23 24 25 25 26 26 26 26 26 25 25 25 24 24 23 23 23 23 22 22 22 22 22
24 24 23 23 23 23 23 24 24 25 26 26 26 26 26 25 24 24 23 23 23 24 24 25 26 26 26 26 25 25 25 24 24 23 23 22 23 23 22 22 22 22 21 21
24 24 24 23 23 23 24 24 25 26 26 26 26 26 25 25 25 24 24 24 24 24 25 26 26 27 26 26 25 25 24 24 24 23 23 22 22 22 22 22 21 21 20 19
23 23 24 24 23 24 24 25 26 26 26 25 25 25 25 25 25 24 24 24 25 25 25 26 26 26 26 25 24 24 24 24 23 23 23 22 23 22 21 21 20 19 19 18
Wind_Direction
281 282 283 281 279 277 276 277 276 275 274 274 273 274 275 274 272 270 268 267 267 268 267 266 266 265 265 265 264 264 265 265 265 265 266 267 268 268 268 268 268 267 267 266
280 281 283 282 281 280 279 277 277 278 277 275 274 274 275 275 274 272 271 270 270 270 270 269 268 268 267 265 264 265 265 265 265 265 267 268 268 269 269 269 269 268 267 267
279 281 283 284 285 283 282 279 278 278 279 277 276 276 277 277 276 274 273 273 272 272 272 272 271 270 269 268 267 267 266 266 266 266 267 269 270 271 270 270 270 268 268 268
280 281 283 289 288 287 286 283 280 279 280 280 280 281 280 279 277 275 274 274 274 274 274 274 273 272 270 270 269 269 268 267 267 267 269 270 271 272 272 271 270 269 268 269
281 283 285 288 289 289 288 286 285 283 283 283 282 283 282 282 279 277 276 275 276 276 275 275 274 273 272 272 271 271 271 269 269 269 270 271 272 272 272 272 271 269 269 269
281 283 288 292 290 290 288 287 285 285 285 286 285 284 285 285 284 281 279 277 277 277 277 276 275 274 274 273 273 273 272 271 270 270 271 271 272 272 273 272 271 270 270 270
280 283 289 293 292 292 291 291 288 287 288 289 288 288 287 286 285 284 282 279 279 280 279 279 277 276 275 275 274 274 273 272 270 271 272 271 271 271 272 271 270 270 271 271
281 283 290 292 293 294 293 290 289 290 290 290 289 290 289 288 287 286 284 283 282 282 282 281 279 278 277 277 276 275 274 272 271 272 272 272 271 271 270 269 270 271 272 272
283 287 291 292 293 294 293 291 291 291 292 292 291 291 290 290 290 289 287 286 284 283 282 282 281 279 279 279 277 276 275 274 272 273 273 273 274 273 270 269 270 271 272 272
284 286 289 291 293 294 294 292 293 292 292 292 292 291 291 291 291 290 289 287 284 282 281 281 281 281 280 279 278 277 276 275 274 274 274 276 276 274 272 270 270 272 273 273
286 287 286 289 292 294 294 293 292 292 292 291 291 291 292 293 292 292 291 289 286 284 283 282 282 282 281 279 278 278 278 276 276 276 276 277 277 276 274 272 272 273 273 273
286 286 288 290 292 293 294 293 293 293 293 293 293 293 294 294 294 294 294 291 289 287 287 284 282 283 281 279 278 278 278 277 278 278 278 278 277 277 276 274 274 274 274 274
285 286 289 291 292 294 295 296 296 296 294 295 296 296 296 296 296 295 294 292 291 291 290 287 285 283 281 280 280 280 280 280 280 280 280 280 279 278 276 276 277 277 277 276
285 285 287 290 291 293 296 297 298 298 298 298 298 298 297 297 298 297 296 294 292 292 292 290 289 286 283 281 281 281 281 282 282 282 282 282 281 280 279 278 278 278 278 278
285 285 286 287 290 293 294 295 297 299 301 301 301 300 299 298 298 297 296 295 294 294 293 291 289 288 286 284 283 283 283 284 285 286 285 284 283 282 281 280 280 280 279 279
284 284 284 286 289 291 293 294 295 297 300 302 302 303 301 299 298 297 296 295 294 295 295 293 289 288 287 285 285 286 286 286 286 287 286 285 285 284 282 281 280 280 280 280
283 283 284 286 289 291 293 294 295 297 298 300 301 302 302 300 299 298 297 296 295 295 295 293 291 289 289 288 287 287 287 287 288 289 289 288 287 286 284 282 281 281 281 281
284 282 283 285 288 291 293 294 296 298 299 300 300 301 301 300 299 298 298 297 296 295 295 294 293 293 292 291 289 288 288 289 290 290 291 290 289 288 286 284 282 281 281 281
285 284 284 286 289 292 293 295 296 297 299 300 300 301 301 300 299 297 297 298 297 296 296 295 295 295 294 292 291 291 290 291 291 292 293 292 291 290 287 283 282 281 280 280
286 286 286 287 290 293 295 296 297 296 297 298 300 301 302 301 299 298 299 298 297 296 296 297 298 298 297 296 295 293 292 293 293 293 294 293 292 290 287 284 282 282 281 281
286 287 288 289 290 292 295 297 297 296 296 297 300 302 303 301 300 299 299 299 297 296 296 298 300 301 301 300 299 296 293 293 293 294 294 294 293 291 289 286 284 284 283 283
287 288 289 289 289 291 294 295 296 296 295 296 299 301 302 301 300 300 300 299 299 298 299 300 300 301 302 301 299 298 296 295 295 295 296 295 294 293 292 291 289 287 286 285
289 289 290 290 290 290 292 294 295 296 295 296 298 300 301 301 301 301 301 300 299 300 300 301 301 302 302 301 300 299 297 296 296 296 295 294 294 294 294 293 292 291 289 288
290 290 291 291 290 290 292 294 295 295 295 296 296 298 299 299 299 300 301 301 301 301 301 302 303 304 304 303 301 300 298 297 296 295 293 292 293 294 294 294 294 293 292 290
291 290 291 292 290 291 293 295 297 297 296 296 296 297 297 297 297 299 300 300 301 302 303 304 305 305 304 302 301 300 298 297 296 295 292 291 291 292 292 292 293 293 293 291
291 290 291 292 292 292 294 296 297 297 298 298 298 297 297 297 297 298 299 300 301 302 303 304 305 306 305 303 300 299 298 297 296 294 291 291 291 291 291 290 290 291 292 292
292 292 292 292 293 294 295 296 298 298 298 298 297 297 297 297 297 297 298 299 301 302 303 304 305 306 305 303 301 299 298 297 296 293 291 290 290 289 289 288 288 289 289 289
Height
5610 5609 5607 5606 5606 5605 5604 5603 5603 5604 5603 5604 5603 5602 5602 5602 5602 5602 5603 5604 5604 5605 5605 5606 5606 5607 5607 5607 5608 5608 5609 5609 5609 5610 5611 5611 5611 5611 5611 5611 5612 5612 5612 5612
5604 5603 5601 5600 5599 5598 5597 5597 5596 5596 5596 5596 5595 5595 5595 5594 5594 5594 5594 5594 5595 5595 5595 5595 5595 5595 5595 5595 5595 5596 5596 5597 5597 5598 5598 5598 5599 5599 5598 5598 5598 5598 5598 5598
5597 5596 5594 5594 5594 5592 5591 5590 5589 5588 5590 5588 5588 5587 5586 5586 5585 5585 5585 5585 5585 5585 5584 5584 5583 5583 5583 5583 5583 5583 5583 5584 5585 5585 5585 5586 5586 5586 5585 5585 5585 5585 5585 5585
5590 5590 5588 5591 5588 5586 5585 5584 5582 5581 5581 5581 5580 5579 5578 5577 5577 5576 5576 5575 5575 5575 5574 5573 5572 5571 5571 5571 5571 5571 5571 5572 5572 5573 5573 5573 5573 5573 5572 5572 5572 5572 5572 5572
5584 5583 5582 5584 5582 5580 5578 5578 5577 5575 5574 5573 5572 5571 5571 5569 5568 5567 5566 5566 5565 5564 5564 5563 5562 5561 5560 5560 5560 5560 5560 5560 5560 5560 5560 5561 5561 5560 5560 5560 5560 5560 5560 5559
5578 5576 5576 5578 5576 5573 5572 5571 5571 5568 5567 5566 5565 5564 5564 5562 5559 5558 5557 5556 5556 5555 5553 5552 5551 5550 5550 5549 5549 5549 5548 5548 5548 5548 5548 5549 5549 5548 5548 5547 5547 5547 5547 5547
5571 5570 5570 5571 5569 5567 5566 5566 5563 5561 5560 5559 5557 5556 5555 5553 5551 5549 5548 5547 5546 5545 5543 5542 5541 5540 5539 5539 5538 5537 5537 5536 5536 5537 5537 5536 5536 5536 5536 5536 5536 5536 5535 5535
5565 5564 5567 5564 5562 5561 5559 5557 5555 5554 5552 5551 5550 5548 5546 5544 5543 5541 5540 5538 5537 5535 5534 5533 5531 5530 5530 5529 5528 5527 5526 5526 5526 5526 5525 5525 5524 5524 5524 5524 5524 5524 5523 5523
5561 5562 5560 5557 5555 5554 5552 5550 5548 5547 5545 5544 5542 5540 5538 5536 5535 5533 5531 5529 5528 5526 5525 5523 5522 5521 5520 5519 5518 5517 5516 5516 5515 5515 5515 5514 5513 5513 5512 5513 5513 5513 5512 5512
5554 5554 5552 5550 5548 5547 5545 5543 5541 5539 5538 5536 5534 5532 5530 5528 5526 5524 5522 5520 5518 5517 5516 5515 5513 5512 5511 5510 5508 5507 5507 5506 5506 5505 5505 5504 5503 5502 5502 5502 5501 5501 5501 5501
5547 5547 5545 5544 5542 5540 5538 5536 5534 5532 5530 5528 5526 5524 5522 5520 5518 5516 5513 5511 5509 5508 5507 5506 5505 5503 5502 5501 5499 5499 5498 5497 5497 5496 5495 5494 5493 5492 5491 5491 5490 5491 5490 5490
5541 5540 5539 5538 5535 5533 5531 5529 5526 5524 5522 5520 5518 5516 5514 5512 5510 5507 5505 5503 5501 5500 5498 5497 5496 5495 5493 5492 5491 5490 5490 5489 5488 5487 5486 5484 5483 5482 5481 5481 5480 5479 5479 5478
5534 5533 5531 5530 5528 5526 5524 5521 5519 5517 5515 5513 5511 5509 5506 5504 5502 5500 5497 5495 5493 5492 5490 5489 5487 5486 5485 5484 5483 5482 5481 5480 5479 5478 5477 5475 5474 5473 5472 5471 5470 5469 5469 5468
5527 5525 5524 5523 5521 5519 5517 5515 5513 5510 5508 5506 5504 5501 5499 5497 5495 5492 5490 5488 5486 5484 5483 5481 5480 5478 5477 5476 5475 5474 5473 5472 5471 5469 5468 5466 5465 5464 5463 5462 5461 5460 5459 5458
5520 5518 5517 5516 5514 5512 5510 5508 5507 5504 5502 5499 5497 5494 5492 5490 5487 5485 5483 5481 5479 5477 5476 5474 5472 5471 5469 5468 5467 5466 5465 5463 5462 5461 5459 5458 5456 5455 5454 5453 5452 5451 5450 5449
5513 5512 5510 5509 5508 5506 5504 5502 5500 5498 5496 5493 5490 5488 5485 5483 5480 5478 5476 5474 5472 5470 5468 5466 5465 5463 5462 5460 5459 5458 5456 5455 5454 5452 5451 5449 5448 5446 5445 5444 5443 5442 5441 5440
5506 5505 5504 5502 5501 5499 5497 5495 5493 5491 5489 5486 5484 5481 5478 5476 5473 5471 5469 5467 5465 5463 5461 5459 5457 5455 5454 5452 5451 5449 5448 5446 5445 5443 5442 5440 5439 5437 5436 5435 5434 5433 5432 5430
5498 5498 5497 5495 5494 5492 5490 5488 5486 5484 5482 5479 5476 5474 5471 5469 5466 5464 5462 5460 5458 5456 5454 5451 5450 5448 5446 5444 5443 5441 5440 5438 5437 5435 5433 5431 5429 5428 5426 5425 5424 5423 5422 5421
5491 5490 5489 5488 5486 5485 5483 5481 5479 5477 5474 5472 5469 5467 5464 5462 5459 5457 5455 5453 5451 5448 5446 5444 5442 5440 5438 5437 5435 5433 5432 5430 5428 5426 5424 5422 5420 5418 5417 5416 5415 5414 5413 5412
5484 5483 5482 5481 5480 5478 5476 5474 5472 5470 5467 5465 5462 5460 5457 5455 5452 5450 5448 5446 5443 5441 5439 5437 5435 5433 5431 5429 5427 5425 5423 5421 5419 5417 5415 5413 5411 5409 5407 5406 5405 5404 5403 5402
5478 5477 5476 5474 5473 5471 5469 5467 5465 5463 5461 5458 5455 5453 5450 5448 5445 5443 5441 5439 5436 5434 5432 5430 5428 5426 5423 5421 5419 5417 5415 5413 5411 5409 5407 5405 5402 5400 5399 5398 5397 5396 5394 5393
5471 5470 5469 5467 5466 5464 5462 5460 5458 5456 5453 5451 5449 5446 5443 5441 5438 5436 5434 5432 5429 5427 5425 5423 5421 5418 5416 5414 5411 5409 5407 5405 5403 5401 5399 5397 5395 5393 5391 5390 5388 5387 5386 5385
5464 5463 5462 5460 5459 5457 5455 5453 5451 5448 5446 5444 5442 5439 5437 5434 5432 5429 5427 5425 5422 5420 5418 5416 5414 5411 5409 5406 5404 5401 5399 5397 5395 5393 5391 5389 5388 5386 5384 5382 5381 5380 5378 5377
5457 5456 5455 5453 5451 5450 5448 5446 5443 5441 5439 5437 5435 5432 5430 5428 5425 5423 5420 5418 5416 5414 5411 5409 5406 5404 5401 5398 5396 5394 5392 5389 5387 5386 5384 5382 5381 5379 5377 5376 5374 5373 5371 5370
5451 5449 5448 5446 5444 5442 5441 5438 5436 5434 5432 5430 5427 5425 5423 5420 5419 5416 5414 5411 5409 5407 5404 5402 5399 5396 5393 5391 5388 5386 5384 5382 5380 5378 5376 5375 5374 5372 5371 5369 5368 5366 5365 5363
5444 5442 5440 5439 5437 5435 5433 5431 5429 5427 5424 5422 5420 5418 5416 5414 5411 5409 5407 5404 5402 5400 5397 5394 5391 5388 5385 5383 5381 5379 5376 5374 5372 5371 5369 5368 5367 5365 5364 5362 5361 5360 5358 5357
5436 5435 5433 5431 5430 5428 5426 5424 5422 5419 5417 5414 5412 5411 5409 5407 5405 5402 5400 5398 5395 5393 5390 5387 5384 5381 5378 5376 5373 5371 5369 5367 5365 5363 5362 5361 5359 5358 5357 5356 5355 5354 5352 5351